H1 CPF 2 NER 2025 12 12 9 346 01 glonass129 H2 1106402 9129 37868 2025 12 12 0 0 0 2025 12 15 23 45 0 900 1 1 0 0 0 1 H9 10 0 61021 0.00000 0 23909514.850 3199133.601 8423328.867 10 0 61021 900.00000 0 22689244.842 3108416.552 11337111.186 10 0 61021 1800.00000 0 21124650.151 3153966.692 14031841.607 10 0 61021 2700.00000 0 19260033.518 3377463.826 16455525.698 10 0 61021 3600.00000 0 17149032.600 3811469.085 18561398.907 10 0 61021 4500.00000 0 14852517.453 4477846.480 20308810.404 10 0 61021 5400.00000 0 12436206.680 5386637.809 21663992.278 10 0 61021 6300.00000 0 9968099.303 6535437.841 22600700.881 10 0 61021 7200.00000 0 7515826.588 7909296.542 23100719.209 10 0 61021 8100.00000 0 5144031.244 9481153.797 23154211.349 10 0 61021 9000.00000 0 2911880.323 11212790.638 22759922.300 10 0 61021 9900.00000 0 870813.021 13056260.024 21925218.743 10 0 61021 10800.00000 0 -937384.642 14955740.592 20665968.755 10 0 61021 11700.00000 0 -2482099.062 16849739.249 19006260.988 10 0 61021 12600.00000 0 -3744939.073 18673553.582 16977966.546 10 0 61021 13500.00000 0 -4720272.456 20361893.650 14620149.534 10 0 61021 14400.00000 0 -5415225.446 21851555.122 11978335.195 10 0 61021 15300.00000 0 -5849143.886 23084032.507 9103647.552 10 0 61021 16200.00000 0 -6052537.213 24007962.521 6051831.413 10 0 61021 17100.00000 0 -6065548.499 24581293.753 2882176.440 10 0 61021 18000.00000 0 -5936014.272 24773089.269 -343636.324 10 0 61021 18900.00000 0 -5717195.948 24564883.696 -3562742.806 10 0 61021 19800.00000 0 -5465279.455 23951534.759 -6712334.736 10 0 61021 20700.00000 0 -5236750.319 22941530.649 -9730903.188 10 0 61021 21600.00000 0 -5085757.513 21556737.902 -12559460.634 10 0 61021 22500.00000 0 -5061580.315 19831598.731 -15142715.427 10 0 61021 23400.00000 0 -5206308.389 17811810.670 -17430173.489 10 0 61021 24300.00000 0 -5552836.117 15552544.000 -19377143.609 10 0 61021 25200.00000 0 -6123258.642 13116272.495 -20945625.003 10 0 61021 26100.00000 0 -6927739.474 10570309.808 -22105058.510 10 0 61021 27000.00000 0 -7963898.903 7984156.332 -22832926.051 10 0 61021 27900.00000 0 -9216749.707 5426769.210 -23115186.546 10 0 61021 28800.00000 0 -10659182.841 2963871.107 -22946540.133 10 0 61021 29700.00000 0 -12252982.008 655411.057 -22330516.451 10 0 61021 30600.00000 0 -13950323.331 -1446716.412 -21279386.464 10 0 61021 31500.00000 0 -15695695.703 -3300599.235 -19813901.081 10 0 61021 32400.00000 0 -17428159.701 -4875803.895 -17962863.294 10 0 61021 33300.00000 0 -19083848.912 -6154379.434 -15762543.848 10 0 61021 34200.00000 0 -20598607.669 -7131330.378 -13255953.506 10 0 61021 35100.00000 0 -21910653.992 -7814542.209 -10491987.562 10 0 61021 36000.00000 0 -22963155.994 -8224166.133 -7524460.554 10 0 61021 36900.00000 0 -23706614.252 -8391492.470 -4411051.028 10 0 61021 37800.00000 0 -24100951.272 -8357363.169 -1212177.573 10 0 61021 38700.00000 0 -24117221.995 -8170192.793 2010171.694 10 0 61021 39600.00000 0 -23738875.403 -7883683.129 5193633.534 10 0 61021 40500.00000 0 -22962516.193 -7554328.590 8276665.141 10 0 61021 41400.00000 0 -21798136.482 -7238817.750 11199718.730 10 0 61021 42300.00000 0 -20268809.064 -6991439.761 13906373.570 10 0 61021 43200.00000 0 -18409855.769 -6861603.747 16344405.224 10 0 61021 44100.00000 0 -16267525.922 -6891574.090 18466773.251 10 0 61021 45000.00000 0 -13897239.253 -7114515.259 20232510.212 10 0 61021 45900.00000 0 -11361465.124 -7552926.993 21607496.715 10 0 61021 46800.00000 0 -8727324.121 -8217534.669 22565109.245 10 0 61021 47700.00000 0 -6064009.213 -9106681.242 23086729.530 10 0 61021 48600.00000 0 -3440130.754 -10206246.887 23162106.407 10 0 61021 49500.00000 0 -921092.716 -11490101.227 22789563.369 10 0 61021 50400.00000 0 1433393.408 -12921071.460 21976047.216 10 0 61021 51300.00000 0 3571555.884 -14452388.695 20737015.728 10 0 61021 52200.00000 0 5451479.167 -16029555.085 19096164.706 10 0 61021 53100.00000 0 7042610.354 -17592556.679 17084997.474 10 0 61021 54000.00000 0 8326792.758 -19078332.013 14742242.689 10 0 61021 54900.00000 0 9298782.692 -20423395.081 12113129.210 10 0 61021 55800.00000 0 9966226.587 -21566503.754 9248529.807 10 0 61021 56700.00000 0 10349097.980 -22451261.760 6203988.410 10 0 61021 57600.00000 0 10478616.636 -23028543.963 3038648.499 10 0 61021 58500.00000 0 10395694.259 -23258641.053 -185897.126 10 0 61021 59400.00000 0 10148971.850 -23113030.814 -3406812.620 10 0 61021 60300.00000 0 9792531.823 -22575698.364 -6561257.085 10 0 61021 61200.00000 0 9383382.614 -21643946.691 -9587628.557 10 0 61021 62100.00000 0 8978823.952 -20328660.475 -12426787.793 10 0 61021 63000.00000 0 8633806.600 -18654009.807 -15023235.741 10 0 61021 63900.00000 0 8398401.050 -16656604.668 -17326219.394 10 0 61021 64800.00000 0 8315485.033 -14384135.015 -19290742.346 10 0 61021 65700.00000 0 8418750.282 -11893553.601 -20878458.571 10 0 61021 66600.00000 0 8731114.977 -9248878.601 -22058430.660 10 0 61021 67500.00000 0 9263610.479 -6518709.318 -22807736.977 10 0 61021 68400.00000 0 10014790.186 -3773560.432 -23111915.756 10 0 61021 69300.00000 0 10970685.527 -1083127.669 -22965237.813 10 0 61021 70200.00000 0 12105310.337 1486399.824 -22370803.424 10 0 61021 71100.00000 0 13381691.254 3874867.676 -21340462.689 10 0 61021 72000.00000 0 14753379.204 6030419.779 -19894562.426 10 0 61021 72900.00000 0 16166376.713 7911403.590 -18061526.168 10 0 61021 73800.00000 0 17561398.342 9487839.622 -15877277.129 10 0 61021 74700.00000 0 18876367.769 10742396.254 -13384517.043 10 0 61021 75600.00000 0 20049045.564 11670832.291 -10631876.446 10 0 61021 76500.00000 0 21019676.681 12281892.249 -7672954.239 10 0 61021 77400.00000 0 21733546.514 12596662.335 -4565266.320 10 0 61021 78300.00000 0 22143338.724 12647417.547 -1369124.454 10 0 61021 79200.00000 0 22211196.972 12476011.289 1853532.492 10 0 61021 80100.00000 0 21910405.405 12131877.469 5040332.252 10 0 61021 81000.00000 0 21226619.169 11669730.687 8129665.157 10 0 61021 81900.00000 0 20158594.883 11147061.884 11061860.171 10 0 61021 82800.00000 0 18718391.822 10621534.643 13780319.390 10 0 61021 83700.00000 0 16931036.363 10148390.817 16232590.785 10 0 61021 84600.00000 0 14833663.815 9777973.153 18371360.212 10 0 61021 85500.00000 0 12474173.025 9553467.366 20155345.533 10 0 61022 0.00000 0 9909448.930 9508956.862 21550077.422 10 0 61022 900.00000 0 7203223.460 9667870.329 22528554.094 10 0 61022 1800.00000 0 4423664.730 10041886.539 23071756.883 10 0 61022 2700.00000 0 1640787.144 10630342.065 23169020.018 10 0 61022 3600.00000 0 -1076209.731 11420167.596 22818245.677 10 0 61022 4500.00000 0 -3661567.273 12386356.967 22025960.505 10 0 61022 5400.00000 0 -6055452.132 13492951.547 20807211.196 10 0 61022 6300.00000 0 -8206197.440 14694501.450 19185299.398 10 0 61022 7200.00000 0 -10072208.757 15937945.239 17191358.887 10 0 61022 8100.00000 0 -11623455.689 17164832.061 14863780.685 10 0 61022 9000.00000 0 -12842486.481 18313795.272 12247494.756 10 0 61022 9900.00000 0 -13724922.093 19323175.167 9393119.870 10 0 61022 10800.00000 0 -14279407.649 20133681.144 6355996.200 10 0 61022 11700.00000 0 -14527021.730 20690980.834 3195118.093 10 0 61022 12600.00000 0 -14500167.004 20948105.685 -28012.851 10 0 61022 13500.00000 0 -14240988.027 20867569.311 -3250591.936 10 0 61022 14400.00000 0 -13799382.687 20423106.378 -6409748.466 10 0 61022 15300.00000 0 -13230691.803 19600955.498 -9443790.146 10 0 61022 16200.00000 0 -12593165.810 18400628.883 -12293428.539 10 0 61022 17100.00000 0 -11945317.584 16835133.519 -14902959.471 10 0 61022 18000.00000 0 -11343275.799 14930632.367 -17221373.016 10 0 61022 18900.00000 0 -10838253.372 12725558.428 -19203369.279 10 0 61022 19800.00000 0 -10474240.566 10269218.290 -20810258.387 10 0 61022 20700.00000 0 -10286022.496 7619943.978 -22010725.749 10 0 61022 21600.00000 0 -10297606.416 4842871.362 -22781446.927 10 0 61022 22500.00000 0 -10521126.134 2007439.298 -23107539.900 10 0 61022 23400.00000 0 -10956269.990 -815284.545 -22982846.253 10 0 61022 24300.00000 0 -11590255.935 -3555338.315 -22410036.639 10 0 61022 25200.00000 0 -12398353.580 -6146546.107 -21400539.656 10 0 61022 26100.00000 0 -13344929.564 -8529031.549 -19974297.014 10 0 61022 27000.00000 0 -14384970.234 -10651460.534 -18159351.412 10 0 61022 27900.00000 0 -15466015.574 -12472920.847 -15991276.825 10 0 61022 28800.00000 0 -16530421.074 -13964362.285 -13512463.985 10 0 61022 29700.00000 0 -17517850.848 -15109539.851 -10771276.485 10 0 61022 30600.00000 0 -18367896.024 -15905423.818 -7821095.269 10 0 61022 31500.00000 0 -19022707.768 -16362062.931 -4719271.175 10 0 61022 32400.00000 0 -19429534.271 -16501909.959 -1526006.674 10 0 61022 33300.00000 0 -19543055.691 -16358641.034 1696811.117 10 0 61022 34200.00000 0 -19327419.989 -15975521.004 4886803.456 10 0 61022 35100.00000 0 -18757895.573 -15403385.447 7982296.370 10 0 61022 36000.00000 0 -17822072.880 -14698325.263 10923498.128 10 0 61022 36900.00000 0 -16520565.861 -13919171.394 13653636.218 10 0 61022 37800.00000 0 -14867184.908 -13124884.817 16120033.451 10 0 61022 38700.00000 0 -12888574.399 -12371960.231 18275104.237 10 0 61022 39600.00000 0 -10623329.838 -11711950.852 20077253.784 10 0 61022 40500.00000 0 -8120630.252 -11189216.274 21491664.756 10 0 61022 41400.00000 0 -5438441.007 -10838986.068 22490957.948 10 0 61022 42300.00000 0 -2641359.373 -10685818.912 23055715.550 10 0 61022 43200.00000 0 201810.683 -10742520.953 23174857.730 10 0 61022 44100.00000 0 3020656.933 -11009568.714 22845865.513 10 0 61022 45000.00000 0 5745825.808 -11475061.431 22074845.156 10 0 61022 45900.00000 0 8311649.958 -12115206.402 20876431.678 10 0 61022 46800.00000 0 10658629.601 -12895319.145 19273531.639 10 0 61022 47700.00000 0 12735666.005 -13771298.982 17296907.981 10 0 61022 48600.00000 0 14501954.833 -14691520.744 14984612.473 10 0 61022 49500.00000 0 15928460.294 -15599065.522 12381274.208 10 0 61022 50400.00000 0 16998907.602 -16434198.457 9537255.636 10 0 61022 51300.00000 0 17710250.852 -17136990.291 6507690.532 10 0 61022 52200.00000 0 18072595.016 -17649972.271 3351421.193 10 0 61022 53100.00000 0 18108573.675 -17920711.431 129854.914 10 0 61022 54000.00000 0 17852207.384 -17904195.701 -3094237.947 10 0 61022 54900.00000 0 17347289.997 -17564925.470 -6257960.080 10 0 61022 55800.00000 0 16645370.998 -16878620.143 -9299531.919 10 0 61022 56700.00000 0 15803419.777 -15833464.368 -12159518.705 10 0 61022 57600.00000 0 14881272.002 -14430838.171 -14782013.771 10 0 61022 58500.00000 0 13938968.047 -12685497.572 -17115752.611 10 0 61022 59400.00000 0 13034098.346 -10625196.037 -19115133.860 10 0 61022 60300.00000 0 12219270.282 -8289761.462 -20741125.455 10 0 61022 61200.00000 0 11539805.832 -5729667.051 -21962036.910 10 0 61022 62100.00000 0 11031768.938 -3004156.340 -22754141.849 10 0 61022 63000.00000 0 10720406.913 -179001.712 -23102138.445 10 0 61022 63900.00000 0 10619071.961 2676008.626 -22999439.083 10 0 61022 64800.00000 0 10728667.782 5489749.022 -22448284.423 10 0 61022 65700.00000 0 11037643.416 8192487.271 -21459680.825 10 0 61022 66600.00000 0 11522532.767 10718553.517 -20053163.817 10 0 61022 67500.00000 0 12149014.936 13008835.851 -18256393.885 10 0 61022 68400.00000 0 12873448.327 15012999.304 -16104594.097 10 0 61022 69300.00000 0 13644811.628 16691337.107 -13639842.237 10 0 61022 70200.00000 0 14406967.846 18016179.143 -10910232.747 10 0 61022 71100.00000 0 15101154.450 18972801.553 -7968926.148 10 0 61022 72000.00000 0 15668593.670 19559802.578 -4873105.542 10 0 61022 72900.00000 0 16053112.614 19788932.279 -1682861.260 10 0 61022 73800.00000 0 16203663.022 19684386.423 1539974.259 10 0 61022 74700.00000 0 16076635.393 19281597.074 4733018.735 10 0 61022 75600.00000 0 15637871.278 18625572.904 7834536.761 10 0 61022 76500.00000 0 14864290.474 17768860.344 10784618.647 10 0 61022 77400.00000 0 13745066.195 16769211.895 13526319.791 10 0 61022 78300.00000 0 12282299.921 15687059.200 16006740.138 10 0 61022 79200.00000 0 10491168.307 14582895.991 18178024.711 10 0 61022 80100.00000 0 8399535.998 13514679.152 19998267.841 10 0 61022 81000.00000 0 6047049.724 12535354.867 21432305.599 10 0 61022 81900.00000 0 3483749.876 11690611.471 22452382.848 10 0 61022 82800.00000 0 768255.007 11016951.196 23038683.387 10 0 61022 83700.00000 0 -2034408.080 10540160.129 23179713.859 10 0 61022 84600.00000 0 -4855241.804 10274239.615 22872534.232 10 0 61022 85500.00000 0 -7623884.865 10220843.835 22122830.010 10 0 61023 0.00000 0 -10271283.579 10369247.843 20944823.784 10 0 61023 900.00000 0 -12732320.577 10696849.039 19361025.420 10 0 61023 1800.00000 0 -14948290.000 11170182.825 17401825.225 10 0 61023 2700.00000 0 -16869122.028 11746412.421 15104933.384 10 0 61023 3600.00000 0 -18455260.663 12375232.371 12514675.445 10 0 61023 4500.00000 0 -19679117.171 13001107.665 9681154.615 10 0 61023 5400.00000 0 -20526036.844 13565755.437 6659295.207 10 0 61023 6300.00000 0 -20994736.834 14010765.112 3507784.374 10 0 61023 7200.00000 0 -21097194.762 14280245.844 287932.041 10 0 61023 8100.00000 0 -20857991.080 14323387.992 -2937528.750 10 0 61023 9000.00000 0 -20313131.560 14096828.024 -6105676.927 10 0 61023 9900.00000 0 -19508398.946 13566713.962 -9154648.352 10 0 61023 10800.00000 0 -18497303.441 12710380.781 -12024864.456 10 0 61023 11700.00000 0 -17338719.462 11517561.661 -14660218.349 10 0 61023 12600.00000 0 -16094310.071 9991080.963 -17009192.932 10 0 61023 13500.00000 0 -14825849.878 8146997.193 -19025887.017 10 0 61023 14400.00000 0 -13592561.699 6014188.180 -20670927.628 10 0 61023 15300.00000 0 -12448581.580 3633394.899 -21912249.263 10 0 61023 16200.00000 0 -11440660.920 1055763.907 -22725724.097 10 0 61023 17100.00000 0 -10606203.822 -1659050.115 -23095630.589 10 0 61023 18000.00000 0 -9971722.892 -4445141.317 -23014951.636 10 0 61023 18900.00000 0 -9551778.187 -7232873.638 -22485497.246 10 0 61023 19800.00000 0 -9348442.893 -9951559.358 -21517850.529 10 0 61023 20700.00000 0 -9351316.430 -12532182.521 -20131139.501 10 0 61023 21600.00000 0 -9538082.087 -14910053.232 -18352640.798 10 0 61023 22500.00000 0 -9875583.065 -17027282.301 -16217224.707 10 0 61023 23400.00000 0 -10321368.924 -18834973.878 -13766653.996 10 0 61023 24300.00000 0 -10825644.710 -20295046.163 -11048751.776 10 0 61023 25200.00000 0 -11333538.494 -21381606.428 -8116455.905 10 0 61023 26100.00000 0 -11787590.096 -22081825.563 -5026779.490 10 0 61023 27000.00000 0 -12130355.109 -22396278.635 -1839698.492 10 0 61023 27900.00000 0 -12307014.124 -22338740.287 1383011.557 10 0 61023 28800.00000 0 -12267877.566 -21935446.455 4578967.067 10 0 61023 29700.00000 0 -11970681.374 -21223855.739 7686373.399 10 0 61023 30600.00000 0 -11382578.261 -20250964.368 10645205.119 10 0 61023 31500.00000 0 -10481741.989 -19071246.254 13398347.751 10 0 61023 32400.00000 0 -9258518.490 -17744304.654 15892680.529 10 0 61023 33300.00000 0 -7716076.417 -16332333.331 18080081.134 10 0 61023 34200.00000 0 -5870530.154 -14897492.130 19918334.913 10 0 61023 35100.00000 0 -3750529.706 -13499304.976 21371933.008 10 0 61023 36000.00000 0 -1396333.302 -12192186.914 22412745.720 10 0 61023 36900.00000 0 1141600.634 -11023201.460 23020559.524 10 0 61023 37800.00000 0 3804446.256 -10030140.042 23183468.245 10 0 61023 38700.00000 0 6527194.795 -9240002.408 22898111.168 10 0 61023 39600.00000 0 9241103.358 -8667940.789 22169753.058 10 0 61023 40500.00000 0 11876309.634 -8316711.998 21012203.501 10 0 61023 41400.00000 0 14364506.850 -8176661.208 19447575.424 10 0 61023 42300.00000 0 16641570.015 -8226239.525 17505885.313 10 0 61023 43200.00000 0 18650025.712 -8433035.558 15224500.394 10 0 61023 44100.00000 0 20341263.070 -8755279.701 12647440.918 10 0 61023 45000.00000 0 21677393.270 -9143759.825 9824548.719 10 0 61023 45900.00000 0 22632678.694 -9544069.135 6810536.136 10 0 61023 46800.00000 0 23194470.105 -9899092.223 3663932.316 10 0 61023 47700.00000 0 23363610.455 -10151624.252 445946.681 10 0 61023 48600.00000 0 23154286.255 -10247011.555 -2780728.357 10 0 61023 49500.00000 0 22593331.006 -10135700.101 -5953151.328 10 0 61023 50400.00000 0 21719008.775 -9775581.345 -9009376.818 10 0 61023 51300.00000 0 20579328.732 -9134033.124 -11889685.551 10 0 61023 52200.00000 0 19229961.999 -8189565.939 -14537773.250 10 0 61023 53100.00000 0 17731849.794 -6933001.852 -16901872.727 10 0 61023 54000.00000 0 16148605.387 -5368133.387 -18935785.119 10 0 61023 54900.00000 0 14543821.456 -3511832.427 -20599798.314 10 0 61023 55800.00000 0 12978398.454 -1393603.039 -21861473.181 10 0 61023 56700.00000 0 11508008.443 945403.660 -22696281.439 10 0 61023 57600.00000 0 10180802.571 3453871.248 -23088082.418 10 0 61023 58500.00000 0 9035459.440 6072233.612 -23029429.699 10 0 61023 59400.00000 0 8099656.364 8734943.237 -22521702.408 10 0 61023 60300.00000 0 7389026.889 11372996.216 -21575059.775 10 0 61023 61200.00000 0 6906646.720 13916607.337 -20208221.287 10 0 61023 62100.00000 0 6643067.305 16297922.860 -18448078.362 10 0 61023 63000.00000 0 6576892.841 18453657.409 -16329146.793 10 0 61023 63900.00000 0 6675873.423 20327545.267 -13892872.312 10 0 61023 64800.00000 0 6898465.284 21872504.703 -11186804.366 10 0 61023 65700.00000 0 7195789.730 23052426.612 -8263655.553 10 0 61023 66600.00000 0 7513905.938 23843514.893 -5180266.164 10 0 61023 67500.00000 0 7796300.217 24235125.179 -1996494.781 10 0 61023 68400.00000 0 7986485.871 24230069.623 1225943.064 10 0 61023 69300.00000 0 8030603.841 23844377.786 4424665.561 10 0 61023 70200.00000 0 7879914.965 23106526.169 7537821.886 10 0 61023 71100.00000 0 7493079.841 22056170.677 10505273.736 10 0 61023 72000.00000 0 6838131.489 20742436.361 13269739.387 10 0 61023 72900.00000 0 5894059.234 19221836.644 15777879.780 10 0 61023 73800.00000 0 4651938.222 17555908.592 17981307.408 10 0 61023 74700.00000 0 3115557.835 15808662.162 19837500.479 10 0 61023 75600.00000 0 1301522.773 14043948.384 21310606.753 10 0 61023 76500.00000 0 -761178.390 12322854.043 22372123.215 10 0 61023 77400.00000 0 -3032120.744 10701229.357 23001439.906 10 0 61023 78300.00000 0 -5460869.574 9227449.495 23186238.355 10 0 61023 79200.00000 0 -7988829.500 7940501.454 22922737.245 10 0 61023 80100.00000 0 -10551442.608 6868474.760 22215780.210 10 0 61023 81000.00000 0 -13080647.608 6027518.385 21078763.051 10 0 61023 81900.00000 0 -15507500.951 5421307.569 19533400.108 10 0 61023 82800.00000 0 -17764853.500 5041043.717 17609332.172 10 0 61023 83700.00000 0 -19789973.208 4865988.748 15343581.073 10 0 61023 84600.00000 0 -21527005.508 4864513.255 12779858.926 10 0 61023 85500.00000 0 -22929168.614 4995616.215 9967743.046 10 0 61024 0.00000 0 -23960591.040 5210853.842 6961730.741 10 0 61024 900.00000 0 -24597713.145 5456597.406 3820189.212 10 0 61024 1800.00000 0 -24830190.445 5676524.734 604224.250 10 0 61024 2700.00000 0 -24661260.224 5814239.860 -2623515.642 10 0 61024 3600.00000 0 -24107552.315 5815908.323 -5800071.729 10 0 61024 4500.00000 0 -23198350.815 5632794.367 -8863420.255 10 0 61024 5400.00000 0 -21974336.594 5223589.793 -11753703.954 10 0 61024 6300.00000 0 -20485863.227 4556432.682 -14414423.602 10 0 61024 7200.00000 0 -18790839.486 3610527.309 -16793564.031 10 0 61024 8100.00000 0 -16952308.780 2377293.793 -18844630.420 10 0 61024 9000.00000 0 -15035829.195 860996.394 -20527572.779 10 0 61024 9900.00000 0 -13106766.369 -921177.900 -21809579.110 10 0 61024 10800.00000 0 -11227615.016 -2939594.919 -22665720.909 10 0 61024 11700.00000 0 -9455463.229 -5153183.369 -23079438.104 10 0 61024 12600.00000 0 -7839707.154 -7510936.694 -23042854.194 10 0 61024 13500.00000 0 -6420112.215 -9953842.953 -22556916.221 10 0 61024 14400.00000 0 -5225301.682 -12417160.826 -21631357.947 10 0 61024 15300.00000 0 -4271734.587 -14832945.285 -20284488.426 10 0 61024 16200.00000 0 -3563213.667 -17132716.315 -18542811.705 10 0 61024 17100.00000 0 -3090941.171 -19250158.481 -16440486.746 10 0 61024 18000.00000 0 -2834117.030 -21123738.315 -14018639.800 10 0 61024 18900.00000 0 -2761050.876 -22699130.607 -11324544.180 10 0 61024 19800.00000 0 -2830737.971 -23931353.235 -8410684.774 10 0 61024 20700.00000 0 -2994829.882 -24786522.919 -5333726.684 10 0 61024 21600.00000 0 -3199914.615 -25243160.614 -2153408.862 10 0 61024 22500.00000 0 -3390008.617 -25292994.385 1068615.311 10 0 61024 23400.00000 0 -3509154.770 -24941228.658 4269967.840 10 0 61024 24300.00000 0 -3504016.856 -24206271.116 7388743.655 10 0 61024 25200.00000 0 -3326361.741 -23118930.692 10364693.459 10 0 61024 26100.00000 0 -2935325.804 -21721121.715 13140370.117 10 0 61024 27000.00000 0 -2299371.516 -20064129.167 15662217.995 10 0 61024 27900.00000 0 -1397853.122 -18206507.469 17881585.984 10 0 61024 28800.00000 0 -222126.680 -16211699.866 19755646.629 10 0 61024 29700.00000 0 1223841.695 -14145476.104 21248205.578 10 0 61024 30600.00000 0 2923395.151 -12073293.222 22330387.525 10 0 61024 31500.00000 0 4847637.463 -10057686.989 22981186.845 10 0 61024 32400.00000 0 6956399.574 -8155800.118 23187873.255 10 0 61024 33300.00000 0 9199683.660 -6417147.926 22946245.035 10 0 61024 34200.00000 0 11519527.688 -4881712.669 22260724.610 10 0 61024 35100.00000 0 13852216.229 -3578444.747 21144293.635 10 0 61024 36000.00000 0 16130748.827 -2524232.792 19618267.221 10 0 61024 36900.00000 0 18287466.026 -1723385.912 17711909.549 10 0 61024 37800.00000 0 20256725.919 -1167650.666 15461895.837 10 0 61024 38700.00000 0 21977520.961 -836763.437 12911628.544 10 0 61024 39600.00000 0 23395926.124 -699516.647 10110418.605 10 0 61024 40500.00000 0 24467275.421 -715295.550 7112545.553 10 0 61024 41400.00000 0 25157974.128 -836022.066 3976213.193 10 0 61024 42300.00000 0 25446868.518 -1008424.301 762420.354 10 0 61024 43200.00000 0 25326113.029 -1176535.675 -2466231.398 10 0 61024 44100.00000 0 24801495.807 -1284316.970 -5646769.201 10 0 61024 45000.00000 0 23892206.580 -1278288.491 -8717094.093 10 0 61024 45900.00000 0 22630054.855 -1110058.350 -11617213.816 10 0 61024 46800.00000 0 21058170.338 -738636.850 -14290436.984 10 0 61024 47700.00000 0 19229240.072 -132435.805 -16684502.944 10 0 61024 48600.00000 0 17203357.118 729134.835 -18752623.084 10 0 61024 49500.00000 0 15045572.520 1854543.301 -20454411.377 10 0 61024 50400.00000 0 12823255.178 3239534.802 -21756684.464 10 0 61024 51300.00000 0 10603372.376 4867079.618 -22634114.799 10 0 61024 52200.00000 0 8449806.779 6707873.366 -23069723.742 10 0 61024 53100.00000 0 6420823.730 8721368.342 -23055205.195 10 0 61024 54000.00000 0 4566795.610 10857292.036 -22591074.210 10 0 61024 54900.00000 0 2928278.395 13057588.052 -21686638.780 10 0 61024 55800.00000 0 1534519.963 15258696.838 -20359796.814 10 0 61024 56700.00000 0 402460.705 17394079.447 -18636663.861 10 0 61024 57600.00000 0 -463734.288 19396877.693 -16551040.532 10 0 61024 58500.00000 0 -1072595.008 21202598.704 -14143731.698 10 0 61024 59400.00000 0 -1444725.118 22751711.469 -11461732.292 10 0 61024 60300.00000 0 -1611668.960 23992047.211 -8557296.953 10 0 61024 61200.00000 0 -1614317.863 24880904.217 -5486912.802 10 0 61024 62100.00000 0 -1500925.626 25386770.641 -2310196.166 10 0 61024 63000.00000 0 -1324818.884 25490595.160 911264.809 10 0 61024 63900.00000 0 -1141900.207 25186554.578 4115099.078 10 0 61024 64800.00000 0 -1008049.721 24482288.507 7239350.421 10 0 61024 65700.00000 0 -976534.565 23398593.272 10223661.516 10 0 61024 66600.00000 0 -1095534.515 21968589.519 13010422.620 10 0 61024 67500.00000 0 -1405886.732 20236399.139 15545864.099 10 0 61024 68400.00000 0 -1939143.169 18255387.010 17781073.586 10 0 61024 69300.00000 0 -2716020.992 16086040.375 19672920.016 10 0 61024 70200.00000 0 -3745310.223 13793572.913 21184868.699 10 0 61024 71100.00000 0 -5023284.077 11445351.298 22287673.519 10 0 61024 72000.00000 0 -6533637.264 9108248.889 22959934.332 10 0 61024 72900.00000 0 -8247956.166 6846033.995 23188509.803 10 0 61024 73800.00000 0 -10126703.404 4716898.748 22968778.153 10 0 61024 74700.00000 0 -12120678.509 2771229.080 22304740.448 10 0 61024 75600.00000 0 -14172896.972 1049706.895 21208963.536 10 0 61024 76500.00000 0 -16220812.672 -418177.632 19702362.090 10 0 61024 77400.00000 0 -18198794.075 -1615141.845 17813821.910 10 0 61024 78300.00000 0 -20040753.503 -2536611.656 15579669.314 10 0 61024 79200.00000 0 -21682821.459 -3190685.872 13042994.330 10 0 61024 80100.00000 0 -23065955.066 -3597563.889 10252838.372 10 0 61024 81000.00000 0 -24138371.208 -3788459.253 7263260.035 10 0 61024 81900.00000 0 -24857701.246 -3804043.453 4132295.589 10 0 61024 82800.00000 0 -25192774.823 -3692484.642 920833.499 10 0 61024 83700.00000 0 -25124955.240 -3507163.824 -2308575.241 10 0 61024 84600.00000 0 -24648967.381 -3304165.621 -5492947.166 10 0 61024 85500.00000 0 -23773180.574 -3139651.136 -8570111.463 99